TimeEST,TemperatureF,Dew PointF,Humidity,Sea Level PressureIn,VisibilityMPH,Wind Direction,Wind SpeedMPH,Gust SpeedMPH,PrecipitationIn,Events,Conditions,WindDirDegrees,DateUTC
12:54 AM,27.0,15.1,61,30.48,10.0,NE,4.6,-,N/A,,Clear,50,2014-01-04 05:54:00
1:54 AM,26.1,15.1,63,30.49,10.0,Calm,Calm,-,N/A,,Clear,0,2014-01-04 06:54:00
2:54 AM,24.1,17.1,75,30.50,10.0,Calm,Calm,-,N/A,,Clear,0,2014-01-04 07:54:00
3:54 AM,26.1,15.1,63,30.49,10.0,East,4.6,-,N/A,,Clear,80,2014-01-04 08:54:00
4:54 AM,26.1,15.1,63,30.48,10.0,NE,5.8,-,N/A,,Partly Cloudy,50,2014-01-04 09:54:00
5:54 AM,25.0,14.0,63,30.48,10.0,ENE,6.9,-,N/A,,Clear,60,2014-01-04 10:54:00
6:54 AM,25.0,12.0,58,30.49,10.0,ENE,4.6,-,N/A,,Clear,60,2014-01-04 11:54:00
7:54 AM,25.0,12.9,60,30.49,10.0,ENE,4.6,-,N/A,,Clear,60,2014-01-04 12:54:00
8:54 AM,28.0,10.9,49,30.51,10.0,NE,5.8,-,N/A,,Overcast,50,2014-01-04 13:54:00
9:54 AM,30.0,12.0,47,30.51,10.0,NE,8.1,-,N/A,,Overcast,50,2014-01-04 14:54:00
10:54 AM,32.0,14.0,48,30.51,10.0,NE,5.8,-,N/A,,Overcast,50,2014-01-04 15:54:00
11:11 AM,32.0,14.0,48,30.48,10.0,ENE,9.2,-,N/A,,Overcast,70,2014-01-04 16:11:00
11:54 AM,34.0,17.1,50,30.46,10.0,NE,6.9,-,N/A,,Overcast,50,2014-01-04 16:54:00
12:54 PM,37.0,19.9,50,30.41,10.0,North,6.9,-,N/A,,Overcast,360,2014-01-04 17:54:00
1:54 PM,37.0,21.0,52,30.40,10.0,North,3.5,-,N/A,,Overcast,360,2014-01-04 18:54:00
2:54 PM,37.9,23.0,55,30.39,10.0,NNW,4.6,-,N/A,,Overcast,340,2014-01-04 19:54:00
3:54 PM,39.0,23.0,53,30.38,10.0,North,6.9,-,N/A,,Overcast,10,2014-01-04 20:54:00
4:29 PM,39.0,23.0,53,30.37,10.0,NNE,6.9,-,N/A,,Overcast,20,2014-01-04 21:29:00
4:54 PM,39.0,23.0,53,30.38,10.0,NNE,6.9,-,N/A,,Overcast,30,2014-01-04 21:54:00
5:40 PM,39.0,24.1,55,30.38,10.0,North,4.6,-,N/A,,Overcast,360,2014-01-04 22:40:00
5:54 PM,39.0,24.1,55,30.38,10.0,NNE,8.1,-,N/A,,Overcast,30,2014-01-04 22:54:00
6:54 PM,37.9,24.1,57,30.37,10.0,NNE,6.9,-,N/A,,Overcast,30,2014-01-04 23:54:00
7:54 PM,37.9,25.0,60,30.36,10.0,NNE,6.9,-,N/A,,Overcast,30,2014-01-05 00:54:00
8:54 PM,37.9,26.1,62,30.34,10.0,NE,4.6,-,N/A,,Overcast,40,2014-01-05 01:54:00
9:03 PM,39.0,25.0,57,30.33,10.0,NE,6.9,-,N/A,,Overcast,40,2014-01-05 02:03:00
9:54 PM,39.0,26.1,60,30.31,10.0,ENE,5.8,-,N/A,,Overcast,70,2014-01-05 02:54:00
10:54 PM,39.0,27.0,62,30.29,10.0,NE,4.6,-,N/A,,Overcast,40,2014-01-05 03:54:00
11:44 PM,39.9,28.9,65,30.26,10.0,NNE,3.5,-,N/A,,Overcast,30,2014-01-05 04:44:00
11:54 PM,39.9,28.9,65,30.26,10.0,NE,4.6,-,N/A,,Overcast,40,2014-01-05 04:54:00